AQI (38)

Current Conditions for Foresthill, CA. Partly Cloudy, Dry   
Visibility: 10 miles
Cloud ht: 600 ft
Space WX Alerts: SUMMARY:  Geomagnetic Sudden Impulse ( Latest Alert ) - Issue Time: 2019 Mar 24 2209 UTC

  Summary / Temperature 

Current Temperature
52.3°F
11.3°C
(24/hr Ago)
53.6°F
(Apparent temp)
49.2°F
Cool
Wind Chill Graphs
50.4°F 

53.9°F/ 12.2°C
 --- Virtual Temp: 54.8°F ---

 Temp Rate:

 24/hr Difference:

 Avg Running Temp:

 Todays High:

 Todays Low:

 Y-days High:

 Y-days Low:

 Todays WChill:

 Y-days WChill:

 Evapotranspiration:

+1.5°F/hr 

-1.3°F

50.6°F

52.3°F 2:28pm

43.9°F 5:06am

55.4°F 12:42pm

38.1°F 6:52am

37.2°F 3:50am

29.3°F 7:30am

0.025 in

115' Above Ground

 Temperature:

 6'AGL VRS 115'AGL:

 Avg Running Temp:

 Humidity:

 Todays High:

 Todays Low:

 Y-days High:

 Y-days Low:

52.0°F 

-0.3°F

50.7°F

82% 

52.0°F 1:52pm

44.0°F 2:38am

55.0°F 12:01pm

42.0°F 4:19am

Temp & Humidity Graphs

  Wind 

Wind Speed

 3.0 mph

Gusting to

 17.0 mph

Wind from WSW

252°  WSW

Light air

 Avg speed:

 Wind Run:

 Peak Gust:

  5.0 mph 

22.0 miles

  19.0 mph 2:01pm

  Almanac  

Moon age: 20 days,22 hours,37 minutes,63%

Waning Gibbous
63%
Illuminated
20 days in cycle

 Moonrise:

 Moonset:

 Sunrise:

 Sunset:

 Solar Noon:

12:48am

10:51am

6:54am

7:18pm

1:09pm

2min 39s more daylight tomorrow 

  Solar Radiation 

(Current Solar)
  429 W/m2 (46%)
(Todays High)
 988 W/m2@2:21pm
Feels like: 56.3°F in the sun

Rain

 Rain Today:

 Rain Rate (/hr):

 Rain last hour:

 Rain Yesterday:

 This Month:

 Season Total:

6 Days Since Last Dry Day

0.13 in

0.000 in

0.00 in

0.12 in

6.01 in

43.86 in

Updated Time

Updated: 3/26/19  2:28pm

(Updated  sec ago)

Humidity & Barometer

 Humidity:

 Wetbulb:

 Dew Point:

 Barometer:

87% 

50.3°F 

48.5°F 

30.061 inHg 

 Baro Trend:  Steady 
Northern Calif
Preparedness
Fire 
Level 

    UV Index  

(Current UV)
2.9  Low
(Todays High) @ 1:54pm
5.5   Medium

National Weather Service Forecast

Foresthill Probe 2 Stats  
Foresthill Probe 2: is located on Thomas Street
at 3000 feet. The main Foresthill Weather site
is located on Melody ln at the 2860 foot elevation

Light Air
52.1°F
11.2°C
Temp Rate:
+1.5°F
1.0 mph
Gusting to
5.0 mph
(Humidity)
85%
Wind from SW
217°  SW
Updated: 26/03/19 - 14:23:13
 Todays High: 52.1°F 13:58
 Todays Low: 43.0°F 06:17
 Rain Today: 0.12 in
 Season Total: 47.08 in

Foresthill Wx: Monthly,Yearly, Highs and Lows 

Foresthill  
This Weather Data is coming from the main Foresthill
Weather site located on Melody ln at the 2860 foot
elevation
Not Foresthill Probe 2
Weather Data
Month
  High
Month
  Low
Year
High
Year
Low
Temp 69.9°F
3/18/19
31.9°F
3/13/19
69.9°F
3/18/19
24.5°F
2/18/19
Humidity 100%
3/4/19
21%
3/13/19
100%
1/9/19
21%
1/1/19
Heat Index 68.8°F
3/18/19
33.6°F
3/13/19
68.8°F
3/18/19
30.1°F
2/22/19
Wind Chill 69.9°F
3/18/19
21.2°F
3/9/19
69.9°F
3/18/19
11.5°F
2/11/19
Wind Gust 37 mph
3/6/19
0 mph
3/1/19
48 mph
2/27/19
0 mph
1/1/19
Barometer 30.34 in
3/14/19
29.66 in
3/6/19
30.54 in
1/23/19
29.37 in
2/14/19
ET 0.16 in
3/18/19
0.00 in
3/1/19
0.16 in
3/18/19
0.00 in
1/1/19
Dew Point 49.2°F
3/19/19
13.7°F
3/13/19
53.2°F
1/19/19
7.7°F
1/1/19
Pacific Satellite US Radar Satellite Imagery Sacramento,CA.  (click to enlarge)
NWS Weather Forecast - Summary
Updated: Tuesday, March 26, 2019 - 3:35am PDT
Current Interstate Highway Conditions for I-80 & US-50

[I 80: IN THE SAN FRANCISCO BAY AREA - SOLANO CO]
no traffic restrictions are reported for this area.

[I 80: IN THE NORTHERN CALIFORNIA AREA & SIERRA NEVADA]
no traffic restrictions are reported for this area.

[US 50: IN THE SACRAMENTO VALLEY & THE LAKE TAHOE BASIN]
no traffic restrictions are reported for this area.
NWS Weather Forecast: and (Updated: )

NWS forecast:

NWS forecast:
YR.NO 10 Day Weather forecast
Last update: 03/26/2019 @ 00:34
Next update: 03/26/2019 @ 13:00
Provided by: 22
      Temperature Precipitation Pressure Wind  
Today
03/26/2019
12:00 18:00 48°F 0.29 in 30.05 inHg Light breeze from south-southwest 4 mph
  18:00 00:00 46°F 0.07 in 29.99 inHg Light air from south 3 mph
    (Click to enlarge)
meteogram

    Forecast for next 9 days

      Temperature Precip Pressure Wind  
Wednesday
03/27/2019
00:00 06:00 45°F 0.11 in 29.98 inHg Light breeze from east-southeast 5 mph
  06:00 12:00 45°F 0.48 in 29.90 inHg Gentle breeze from south-southeast 9 mph
  12:00 18:00 46°F 0.70 in 29.99 inHg Gentle breeze from south 9 mph
  18:00 00:00 41°F   30.02 inHg Light breeze from south-southwest 6 mph
      Temperature Precip Pressure Wind  
Thursday
03/28/2019
00:00 06:00 36°F 0.02 in 30.15 inHg Light breeze from east-southeast 6 mph
  06:00 12:00 34°F 0.13 in 30.20 inHg Light breeze from east 4 mph
  12:00 18:00 39°F 0.15 in 30.31 inHg Light breeze from south 6 mph
  17:00 23:00 43°F 0.20 in 30.26 inHg Light breeze from south-southeast 6 mph
  23:00 05:00 37°F   30.36 inHg Light breeze from east-southeast 5 mph
      Temperature Precip Pressure Wind  
Friday
03/29/2019
05:00 11:00 32°F   30.37 inHg Light breeze from east-northeast 4 mph
  11:00 17:00 50°F   30.35 inHg Light air from west-northwest 3 mph
  17:00 23:00 52°F   30.29 inHg Light breeze from west-northwest 6 mph
  23:00 05:00 36°F   30.28 inHg Gentle breeze from east-northeast 8 mph
      Temperature Precip Pressure Wind  
Saturday
03/30/2019
05:00 11:00 39°F   30.25 inHg Gentle breeze from east-northeast 9 mph
  11:00 17:00 57°F   30.22 inHg Gentle breeze from east 9 mph
  17:00 23:00 61°F   30.15 inHg Light air from northeast 3 mph
  23:00 05:00 45°F   30.20 inHg Gentle breeze from east-northeast 10 mph
      Temperature Precip Pressure Wind  
Sunday
03/31/2019
05:00 11:00 37°F   30.18 inHg Gentle breeze from east-northeast 8 mph
  11:00 17:00 61°F   30.20 inHg Light breeze from southwest 4 mph
  17:00 23:00 61°F   30.14 inHg Light breeze from west-southwest 5 mph
  23:00 05:00 41°F   30.15 inHg Light breeze from east-northeast 6 mph
      Temperature Precip Pressure Wind  
Monday
04/01/2019
05:00 11:00 39°F   30.11 inHg Light breeze from east-northeast 5 mph
  11:00 17:00 59°F 0.04 in 30.12 inHg Light air from west-southwest 2 mph
  17:00 23:00 61°F   30.04 inHg Light air from west-southwest 3 mph
  23:00 05:00 43°F   30.04 inHg Light breeze from east-northeast 4 mph
      Temperature Precip Pressure Wind  
Tuesday
04/02/2019
05:00 11:00 39°F   29.96 inHg Light breeze from east-northeast 4 mph
  11:00 17:00 59°F 0.04 in 29.93 inHg Light breeze from southwest 6 mph
  17:00 23:00 54°F 0.14 in 29.84 inHg Gentle breeze from south-southwest 9 mph
  23:00 05:00 43°F   29.93 inHg Light breeze from south-southeast 5 mph
      Temperature Precip Pressure Wind  
Wednesday
04/03/2019
05:00 11:00 37°F   29.90 inHg Light air from east-northeast 3 mph
  11:00 17:00 52°F   29.94 inHg Light air from west 3 mph
  17:00 23:00 54°F   29.91 inHg Light breeze from west-southwest 7 mph
  23:00 05:00 39°F   29.98 inHg Light air from east 1 mph
      Temperature Precip Pressure Wind  
Thursday
04/04/2019
05:00 11:00 32°F   29.97 inHg Light breeze from east-northeast 6 mph
  11:00 17:00 55°F   30.00 inHg Light breeze from west 5 mph

NOAA Local Storm Report
5 MILES NORTH OF BOSSIER CITY   ( More )
DATE
03/25/2019
TIME
3:09 AM
COUNTY
BOSSIER
STATE
LA
GEOGRAPHIC
32.59N 93.73W
SOURCE
NWS EMPLOYEE
HAIL ESTIMATED AT 1.50 INCH
a security camera captured images of near ping pong ball size hail that fell in north bossier city.
How Close Are We To this Month's Temperature Record ?
Updated Tuesday, Mar 26, 2019- 2:20:00 PM

Current Temperature: 52.3°F

March's High: Temperature Record 77.2°F - Set on Fri, Mar 27, 2015 - 2:34:00 PM
We are currently 24.9°F Less than this Month's record High

March's Low: Temperature Record 28.6°F - Set on Wed, Mar 7, 2012 - 5:18:00 AM
We are currently 23.7°F More than this Month's record Low

Weather History For Tuesday, March 26, 2019


On this Day - In Weather History ...
Data courtesy of weatherforyou.com
powered by Cumulus v1.9.3 (1059)
Ambient Weather VWS v14.00
Top Contact Website Map Copyright © 2007 - 2019 Foresthillweather.com Never base important decisions on this or any weather information obtained from the Internet